Regional Weather Roundup
Issued by NWS

Home | Current Version | Previous Version | Graphics & Text | Print | Product List | Glossary On
Versions: 1 2 3 4 5 6 7 8 9 10 11 12 13 14 15 16 17 18 19 20 21 22 23 24 25 26 27 28 29 30 31 32 33 34 35 36 37 38 39 40 41 42 43 44 45 46 47 48 49 50
000
ASUS45 KTFX 100210
RWRMT
MONTANA REGIONAL WEATHER ROUNDUP
NATIONAL WEATHER SERVICE GREAT FALLS MT
700 PM MST TUE FEB 09 2016

NOTE: "FAIR" INDICATES FEW OR NO CLOUDS BELOW 12000 FEET WITH NO
SIGNIFICANT WEATHER AND/OR OBSTRUCTIONS TO VISIBILITY.

MTZ001>007-043-100300-
WEST OF THE DIVIDE

CITY           SKY/WX    TMP DP  RH WIND       PRES   REMARKS
KALISPELL      CLEAR     31  27  85 CALM      30.29F
MISSOULA       CLEAR     35  29  78 NW3       30.31S
BUTTE          CLOUDY    27  21  78 SE3       30.32F
MULLAN PASS    CLEAR     42  30  62 S5        30.28F
ANACONDA         N/A     36  28  75 SW5       30.31S
DEER LODGE       N/A     32  28  86 W5        30.32S
HAMILTON         N/A     34  28  80 SE3       30.28S
LIBBY            N/A     34  28  80 SE6       30.28F WCI  29
PLAINS           N/A     36  29  76 CALM      30.26F
$$

MTZ008-052>055-100300-
SOUTHWEST MONTANA

CITY           SKY/WX    TMP DP  RH WIND       PRES   REMARKS
BOZEMAN        CLOUDY    33  26  75 CALM      30.29S
DILLON         CLOUDY    37  26  64 S13       30.32S WCI  29
ENNIS          CLEAR     39  27  60 S16       30.37F WCI  30
THREE FORKS      N/A     31  21  66 CALM      30.25F
TWIN BRIDGES     N/A     36  24  62 E7        30.27S WCI  30
$$

MTZ009-010-012-014-046-048-049-054-100300-
EAST SLOPES AND CENTRAL MONTANA

CITY           SKY/WX    TMP DP  RH WIND       PRES   REMARKS
CUT BANK       MOCLDY    48  25  40 W17       30.08F
GREAT FALLS    PTCLDY    45  24  43 SW15      30.12F
MALMSTROM AFB  CLOUDY    53  22  29 SW24G30   30.11F
HELENA         CLOUDY    39  30  70 SW5       30.26F
CHOTEAU          N/A     54  10  17 S8        30.13F
CONRAD           N/A     44  21  40 S7        30.10F
$$

MTZ011-013-016-021-045-047-050-051-100300-
NORTH CENTRAL MONTANA

CITY           SKY/WX    TMP DP  RH WIND       PRES   REMARKS
HAVRE          CLEAR     40  27  59 W7        30.03F
LEWISTOWN      CLOUDY    40  27  59 CALM      30.10F
N BAR RANCH      N/A     39  21  48 W7        30.12F
CHINOOK          N/A     39  23  52 CALM      30.03S
$$

MTZ017>020-022>027-061-062-100300-
NORTHEAST MONTANA

CITY           SKY/WX    TMP DP  RH WIND       PRES   REMARKS
GLASGOW        CLEAR     40  31  70 W7        30.02F
JORDAN           N/A     33  29  85 W5        30.05F
SIDNEY         PTCLDY    30  21  69 NW5       30.04F
WOLF POINT     CLOUDY    33  29  85 CALM      30.02F
PLENTYWOOD       N/A     30  23  74 SE7       30.00F WCI  23
POPLAR           N/A     34  25  69 CALM      30.02F
SCOBEY           N/A     33  23  67 CALM      29.97F
$$

MTZ028>42-056>058-100300-
SOUTHCENTRAL AND SOUTHEAST MONTANA

CITY           SKY/WX    TMP DP  RH WIND       PRES   REMARKS
BAKER          CLOUDY    36  26  67 W8        30.05F WCI  30
BILLINGS       CLOUDY    48  23  37 W22       30.13F
LIVINGSTON     CLOUDY    43  24  47 VRB6      30.23F
MILES CITY     CLEAR     39  28  64 W8        30.06F
FORSYTH          N/A     50  25  37 S5        30.08F
LAUREL           N/A     47  21  35 S13       30.12
ROUNDUP          N/A     48  21  34 SW3       30.01F
$$

REGIONAL REPORTS...DAKOTAS

CITY           SKY/WX    TMP DP  RH WIND       PRES   REMARKS
WILLISTON      PTCLDY    31  23  72 CALM      30.04F
MINOT          FLURRIES  24  15  68 E14       30.10F WCI  12
DICKINSON      CLOUDY    27  20  75 E8        30.02F WCI  19
BEACH            N/A     32  28  86 CALM      30.05F
CROSBY         MOCLDY    28  27  93 SE5       30.05F
TIOGA          CLOUDY    30  30 100 S5        30.08F
WATFORD CITY     N/A     30  25  80 SE8       30.04F WCI  23
BISMARCK       CLOUDY    35  22  58 CALM      30.09F
GRAND FORKS    CLOUDY     5  -1  76 N7        30.27S WCI  -7
FARGO          CLOUDY    11   3  70 NE6       30.23F WCI   1
BUFFALO SD       N/A     38  27  64 SW6       29.99F
RAPID CITY     CLEAR     31  26  82 CALM      30.10S
$$

REGIONAL REPORTS...WYOMING/IDAHO/WASHINGTON

CITY           SKY/WX    TMP DP  RH WIND       PRES   REMARKS
GILLETTE       CLEAR     38  29  70 W8        30.15F
SHERIDAN       CLEAR     39  24  55 S6        30.14F
BUFFALO WY     CLEAR     48  24  39 S9        30.18F
CODY           CLOUDY    39  21  48 E6        30.23F
YELLOWSTONE LA   N/A     22  17  81 CALM      30.46R
IDAHO FALLS    CLOUDY    17  15  92 N5        30.49S
SALMON         CLOUDY    16  12  86 SE5       30.47R
BOISE          CLEAR     38  32  79 SW3       30.44S
SPOKANE        PTCLDY    43  33  68 CALM      30.24S
$$

REGIONAL REPORTS...ALBERTA

CITY           SKY/WX    TMP DP  RH WIND       PRES   REMARKS
EDMONTON       CLEAR     39  25  56 W9        29.92S
CALGARY        PTCLDY    48  18  29 CALM      29.98F
LETHBRIDGE     PTCLDY    55  27  33 W28G38    30.01S
MEDICINE HAT   PTCLDY    37  32  81 SW9       29.98F WCI  31
$$

REGIONAL REPORTS...SASKATCHEWAN

CITY           SKY/WX    TMP DP  RH WIND       PRES   REMARKS
SWIFT CURRENT  PTCLDY    37  30  75 SW12      29.94F WCI  30
REGINA         MOCLDY    28  25  86 SE15      29.96F WCI  17
SASKATOON      MOCLDY    28  27  93 E8        29.94F WCI  20
$$




USA.gov is the U.S. government's official web portal to all federal, state and local government web resources and services.